AirNav   Everest Fuels
 
 1122 users online  

2N6 Redwing Airport
Jobstown, New Jersey, USA

GOING TO JOBSTOWN?


FAA INFORMATION EFFECTIVE 31 DECEMBER 2020

Location

FAA Identifier: 2N6
Lat/Long: 40-01-37.5000N 074-41-27.2000W
40-01.625000N 074-41.453333W
40.0270833,-74.6908889
(estimated)
Elevation: 78 ft. / 24 m (estimated)
Variation: 12W (1985)
From city: 1 mile S of JOBSTOWN, NJ
Time zone: UTC -5 (UTC -4 during Daylight Saving Time)
Zip code: 08041

Airport Operations

Airport use: Open to the public
Activation date: 03/1960
Control tower: no
ARTCC: NEW YORK CENTER
FSS: MILLVILLE FLIGHT SERVICE STATION
NOTAMs facility: MIV (NOTAM-D service available)
Attendance: IREG
Wind indicator: yes
Segmented circle: no

Airport Communications

CTAF: 122.9
WX ASOS at VAY (9 nm SW): 119.325 (609-267-1176)
WX ASOS at PNE (15 nm W): 121.15 (215-677-0146)
WX ASOS at TTN (16 nm N): 126.775 (609-538-8690)
WX AWOS-3PT at MJX (19 nm E): 119.875 (732-797-2542)

Nearby radio navigation aids

VOR radial/distance  VOR name  Freq  Var
GXUr296/4.5MC GUIRE VORTAC110.6012W
RBVr231/13.8ROBBINSVILLE VORTAC113.8010W
ARDr154/16.8YARDLEY VOR/DME108.2010W
CYNr327/17.3COYLE VORTAC113.4010W
COLr246/29.7COLTS NECK VOR/DME115.4011W
VCNr033/32.0CEDAR LAKE VOR/DME115.2010W
SBJr186/33.4SOLBERG VOR/DME112.9010W
ACYr001/34.7ATLANTIC CITY VORTAC108.6010W
OODr060/36.7WOODSTOWN VORTAC112.8010W

 
NDB name  Hdg/Dist  Freq  Var  ID
LAKEHURST277/16.439611WNEL -. . .-..
AMBLER114/27.927512WING .. -. --.

Airport Services

Parking: tiedowns
Airframe service: MINOR
Powerplant service: MINOR
Bottled oxygen: NONE
Bulk oxygen: NONE

Runway Information

Runway 6/24

Dimensions: 1830 x 50 ft. / 558 x 15 m
Surface: turf, in good condition
RUNWAY 6  RUNWAY 24
Traffic pattern: leftleft
Obstructions: 56 ft. trees, 725 ft. from runway, 155 ft. left of centerline, 12:1 slope to clear
RY 06 FIRST HALF, TREES WITHIN 90 FT OF CTLN.
15 ft. road
RWY 24 ADDTNL OBSTRS, +35 TO +62 FT TREES, DIST 320-400 FT, 80-120 FT L.

Runway 11/29

Dimensions: 1590 x 70 ft. / 485 x 21 m
Surface: turf, in good condition
Runway edge lights: non-standard
RUNWAY 11  RUNWAY 29
Latitude: 40-01.645168N40-01.606395N
Longitude: 074-41.622142W074-41.285158W
Elevation: 73.0 ft.78.0 ft.
Traffic pattern: rightleft
Runway heading: 111 magnetic, 099 true291 magnetic, 279 true
Obstructions: 38 ft. trees, 10 ft. from runway, 100 ft. left of centerline63 ft. tree, 1500 ft. from runway, 23:1 slope to clear

Airport Ownership and Management from official FAA records

Ownership: Privately-owned
Owner: CENTRAL JERSEY R.W. INC
PO BOX 186
CROSSWICKS, NJ 08515
Phone 609-298-6645
Manager: GEORGE P. DENGLER
PO BOX 186
CROSSWICKS, NJ 08515
Phone 609-298-6645

Airport Operational Statistics

Aircraft based on the field: 5
Single engine airplanes: 4
Helicopters: 1
    
Aircraft operations: avg 56/week *
80% local general aviation
20% transient general aviation
* for 12-month period ending 02 May 2019

Additional Remarks

NIGHT LANDINGS PROHIBITED DUE TO PERMANENT REDUCTION IN LENGTH OF RWY 11/29.
NSTD LIGHTING RY 11/29 OTS INDEFLY.
FOR CD CTC MC GUIRE APCH AT 609-754-2767.
DEER & BIRDS ON & INVOF ARPT.

Instrument Procedures

There are no published instrument procedures at 2N6.

Some nearby airports with instrument procedures:

KWRI - McGuire Field (Joint Base Mc Guire Dix Lakehurst) Airport (5 nm E)
N14 - Flying W Airport (8 nm SW)
KVAY - South Jersey Regional Airport (9 nm SW)
N87 - Trenton-Robbinsville Airport (12 nm N)
KPNE - Northeast Philadelphia Airport (15 nm W)
KNEL - Lakehurst Maxfield Field Airport (16 nm E)
KTTN - Trenton Mercer Airport (16 nm N)
19N - Camden County Airport (19 nm SW)
KMJX - Ocean County Airport (19 nm E)
 
Loc | Ops | Rwys | IFR | FBO | Links
Com | Nav | Svcs | Stats | Notes
Area around 2N6 (Redwing Airport)
 
Road maps at: MapQuest Bing Google
 
Aerial photo
WARNING: Photo may not be current or correct
Aerial photo of 2N6 (Redwing Airport)
Looking north.

Do you have a better or more recent aerial photo of Redwing Airport that you would like to share? If so, please send us your photo.

 
Sectional chart

 
Airport distance calculator
Flying to Redwing Airport? Find the distance to fly.

From to 2N6

Sunrise and sunset
Times for 25-Jan-2021
 Local
(UTC-5)
 Zulu
(UTC)
Morning civil twilight06:4511:45
Sunrise07:1412:14
Sunset17:0822:08
Evening civil twilight17:3722:37

Current date and time
Zulu (UTC)  26-Jan-2021 00:16:41
Local (UTC-5)  25-Jan-2021 19:16:41
 
METAR
KWRI 
5nm E 
252356Z AUTO 21003KT 10SM FEW160 00/M09 A3005 RMK AO2 SLP177 T00011094 10020 20000 55009
KVAY 
9nm SW 
ASOS 119.325 609-267-1176
252354Z AUTO 00000KT 10SM CLR 01/M08 A3007 RMK AO2 SLP183 T00061083 10022 20006 58006
KPNE 
15nm W 
252354Z 00000KT 10SM BKN055 02/M08 A3008 RMK AO2 SLP186 T00171083 10028 20017 58006
KTTN 
16nm N 
ASOS 133.70 609-538-8690
252353Z 00000KT 10SM CLR 01/M09 A3006 RMK AO2 SLP174 T00061089 10017 20006 57007
KNEL 
16nm E 
260000Z 00000KT 10SM CLR M01/M07 A3007 RMK AO2 SLP181 T10061072 10022 21006 55001
KMJX 
19nm E 
AWOS-3 119.875 732-244-4450
252356Z AUTO 00000KT 10SM CLR M01/M07 A3008 RMK AO2 SLP189 T10061072 10028 21006 58007 FZRANO
TAF
KWRI 
5nm E 
251800Z 2518/2624 33007KT 9999 BKN065 QNH3006INS BECMG 2603/2604 06006KT 6000 -SHSN BKN025 620307 QNH2996INS TEMPO 2609/2613 8000 -RASN BKN010 620159 BECMG 2613/2614 07008KT 9000 -RA BKN009 QNH2990INS BECMG 2618/2619 09009KT 4800 -RA BR OVC007 QNH2978INS TX03/2519Z TNM03/2606Z
KPNE 
15nm W 
251720Z 2518/2618 VRB03KT P6SM OVC060 FM260700 07004KT P6SM OVC040 FM261300 07007KT 6SM -SN OVC035 FM261500 07007KT 4SM -FZRAPL BR OVC025
KTTN 
16nm N 
251720Z 2518/2618 VRB04KT P6SM OVC070 FM260800 07004KT P6SM OVC040 FM261400 07006KT 6SM -SN OVC035 FM261600 07006KT 3SM -FZRAPL BR OVC025
NOTAMs
Click for the latest NOTAMs
NOTAMs are issued by the DoD/FAA and will open in a separate window not controlled by AirNav.

 

 
 

Would you like to see your business listed on this page?

 If your business provides an interesting product or service to pilots, flight crews, aircraft, or users of the Redwing Airport, you should consider listing it here.  To start the listing process, click on the button below
 
Add a business
 

Other Pages about Redwing Airport

Update a link
 
Copyright © AirNav, LLC. All rights reserved. Privacy Policy  Contact